STARLINK-4606, 53632

Orbit data source: Space-Track

STARLINK-4606, 53632 is a payload satellite owned by SpaceX/Seattle (US) in LEO that was launched on Sun, 28 Aug 2022 UTC via an FALCON 9 launch vehicle from the Air Force Eastern Test Range (AFETR). Payload-class satellites include a variety of spacecraft equipped with specific instruments for various scientific and technological missions. These include communications satellites like Starlink; space stations such as the ISS; scientific satellites like the Hubble; Earth observation satellites from companies like Planet Labs, Umbra, and HawkEye 360; GPS; miniature CubeSats for education and research; and military/defense satellites.

Loading next visibility...
Identifier
53632, 2022-104AW
Orbit
LEO
Country
Flag of USUS
Related business
Manufacturer
SpaceX/Seattle
Mission
Operational Commercial Communications
Bus & Motor
STARLINK, Unknown motor
Mass
300 kg wet, ~290 kg dry
Launch date (UTC)
2022-08-28 (3 years ago)
Launch vehicle
FALCON 9
Launch site
Air Force Eastern Test Range (AFETR)
Object type
Payload
Rocket body
Debris
Shape & HBR
Box + 1 Pan, 10.1 m
Radar Cross Section
13.562 m², Large (>1 m²)

Expand to show TLE details & history
Last TLE update: 3 days ago

TLE from 3 days ago
0 STARLINK-4606
1 53632U 22104AW  25299.74000239 -.00000697  00000-0 -25692-4 0  9992
2 53632  53.2170 105.4274 0001419  86.2031 273.9124 15.08833958176009
Epoch: 2025-10-26T17:45Z
TLE epoch observation values (Epoch: 2025-10-26T17:45:36.206Z)
Latitude
0.00003°
Longitude
163.6747°
Altitude
540.592 km
Speed
7.593 km/s
True Right ascension
07h 01m 42s
True Declination
0° 00' 00"
Sunlit
Object was in daylight at epoch
Visualization orbit readout
Latitude
Unknown
Longitude
Unknown
Altitude
Unknown
Speed
Unknown
Apparent Right ascension
Unknown
Apparent Declination
Unknown
Sunlit
N/A
Visualization observer readout
Local Sidereal Time
03:25:54
Azimuth
Unknown
Elevation
Unknown
Doppler factor
Unknown
Orbital elements
Apogee altitude
540.989 km
Perigee altitude
539.025 km
Semi-major axis
6,918.144 km
Eccentricity
0.00014
Inclination
53.217°
RAAN
105.4274°
Arg. of periapsis
86.2031°
True anomaly
273.89618°
Mean anomaly
273.9124°
Eccentric anomaly
273.90429°
Mean motion
3.77189 °/min
Orbital period
95.44 mins
BSTAR
-0.000025692
Loading maneuver chart data...
Computing Atmospheric mass density...
Loading historical data...
Loading historical data...
Loading historical data...
Loading historical data...
Loading historical data...
Loading historical data...
Loading historical data...

Documentation

Showing up to 5 results
|